Theta_e
309 308 308 308 308 308 308 309 309 310 310 308 307 308 311 313 314 318 317 316 315 320 322 319 324 326 318 317 315 314 324 323 323 319 320 316 317 318 316 318 316 317 322 327 331
307 307 307 307 307 307 307 308 309 309 309 309 307 306 308 311 312 316 316 316 317 317 321 320 325 320 320 318 317 320 323 322 318 318 318 318 319 320 320 319 319 321 319 333 338
307 306 306 306 306 306 306 307 307 308 308 308 307 307 306 310 315 317 317 317 318 319 319 321 322 320 320 316 317 317 321 318 319 317 318 320 320 318 320 320 319 319 320 327 336
306 306 306 305 305 305 305 306 306 307 307 307 307 307 306 311 319 313 316 318 318 319 321 321 321 321 321 320 317 320 318 318 319 320 320 321 319 319 319 320 317 318 317 316 334
306 306 305 305 305 304 304 305 305 306 306 307 307 306 308 314 314 314 313 315 319 318 320 321 322 322 323 319 317 319 318 318 319 318 318 317 318 319 318 317 316 315 316 317 317
305 306 305 305 304 304 304 304 305 305 305 306 306 307 308 315 313 315 313 315 318 319 321 320 320 319 320 319 319 318 318 318 318 318 317 318 317 316 317 314 315 315 317 316 316
304 305 305 304 304 304 304 304 304 304 304 305 306 305 308 312 312 312 314 317 317 319 322 320 318 318 316 318 316 316 319 318 318 317 318 317 318 318 316 315 316 316 314 315 315
304 305 305 303 303 303 303 303 304 303 302 303 305 305 308 310 312 312 314 316 317 320 322 322 318 316 317 315 317 319 318 321 317 317 317 317 318 316 314 315 316 315 314 312 313
306 305 304 302 303 304 303 303 303 305 303 303 304 305 309 311 312 312 313 314 318 320 321 321 319 320 317 318 320 318 320 319 319 317 317 318 318 316 314 314 315 314 313 312 312
306 307 306 305 303 304 304 305 304 303 304 304 303 305 307 312 312 312 311 314 319 320 320 320 320 320 318 319 322 322 319 319 318 315 316 317 318 316 313 311 313 313 313 313 312
306 306 305 305 304 304 304 302 299 301 303 301 302 304 310 312 312 312 314 318 318 320 322 320 322 321 322 318 315 317 318 319 317 313 314 315 314 313 312 311 311 311 311 311 312
306 306 306 305 304 304 303 300 300 301 302 303 304 305 305 306 314 313 313 320 322 322 321 322 321 319 319 317 317 318 318 318 316 312 312 312 312 312 312 312 311 311 310 310 310
306 306 305 304 304 303 303 301 302 301 301 304 304 306 307 311 314 314 314 318 321 318 312 321 322 319 320 321 322 320 320 317 319 312 309 310 314 311 309 307 306 304 303 304 306
305 306 305 303 303 303 302 303 302 301 293 304 306 309 309 312 315 312 313 317 319 316 314 314 322 322 322 322 322 324 314 314 313 315 318 309 319 311 308 306 304 305 305 305 305
305 305 303 303 303 302 303 302 302 301 302 304 309 308 312 314 313 315 314 316 319 318 319 318 322 323 321 321 320 319 312 311 310 311 311 310 313 310 305 307 305 306 305 306 306
303 303 303 303 302 302 302 301 301 295 308 310 311 313 315 313 316 316 316 315 314 316 315 315 313 317 317 314 316 309 309 307 307 308 315 308 309 307 307 307 305 305 305 305 305
303 303 302 303 302 302 302 300 296 305 302 311 311 314 315 315 316 316 317 318 319 318 318 316 315 311 313 316 311 310 315 315 311 311 317 307 309 309 305 306 306 306 306 305 304
303 303 302 302 302 303 303 298 305 309 308 311 314 315 318 315 316 316 316 317 312 313 314 317 319 314 310 312 317 311 312 315 313 311 310 307 312 309 304 303 305 305 304 304 306
302 303 303 303 303 304 305 311 309 303 308 316 314 314 316 314 315 316 312 314 311 310 316 314 314 310 310 309 310 311 312 305 306 303 308 307 305 302 303 304 305 306 307 307 308
302 301 302 303 303 303 306 314 313 309 311 309 313 312 315 315 316 315 315 312 311 309 307 309 315 311 310 309 308 309 306 311 305 309 310 303 303 304 303 306 306 307 307 306 309
301 301 303 305 303 303 309 310 312 310 309 310 310 310 312 313 312 313 311 312 310 309 306 307 311 313 311 311 311 310 310 306 305 304 307 306 304 302 305 306 306 306 306 308 313
298 303 303 305 304 305 311 310 310 311 309 308 307 308 309 309 310 311 310 311 308 308 310 307 310 315 312 307 306 308 308 305 307 305 304 305 307 303 302 304 304 305 306 313 311
299 299 302 304 304 301 306 309 310 309 307 308 309 308 307 308 310 309 308 307 308 308 308 306 305 309 313 308 306 309 307 304 302 302 304 308 305 304 303 304 305 306 309 312 310
297 299 299 299 300 306 307 309 311 309 308 306 307 307 308 308 307 309 309 309 307 309 310 306 304 305 307 307 306 306 308 305 305 306 306 306 305 306 305 306 307 307 309 311 308
297 302 303 305 303 303 306 308 311 311 308 306 308 308 309 310 310 309 309 309 309 312 307 306 304 299 305 306 305 307 309 307 305 306 308 305 306 307 306 306 307 306 311 309 303
301 303 303 304 301 303 305 309 311 311 311 310 309 310 310 309 308 309 308 308 309 307 307 304 308 303 304 307 306 307 308 308 307 307 306 307 309 308 307 306 308 312 309 306 301
300 301 303 302 301 304 306 308 310 309 310 310 310 311 312 312 310 307 305 305 306 307 307 307 305 301 303 305 307 310 308 308 307 307 308 310 309 307 308 309 312 310 305 302 299
Wind_Speed
23 25 24 23 23 23 23 21 20 18 14 14 16 17 18 20 23 17 20 14 25 11 1 12 12 9 5 3 3 2 3 6 9 9 3 4 4 2 1 1 2 2 1 6 3
25 24 24 24 22 22 22 21 19 19 16 14 14 15 17 18 23 21 19 16 22 21 12 11 11 10 3 4 3 4 5 9 5 6 5 5 4 3 2 2 2 1 3 5 9
23 24 23 22 21 21 20 20 17 17 17 14 14 14 15 14 11 4 28 26 22 18 19 15 12 7 4 2 4 4 5 5 4 4 4 6 4 4 4 3 4 2 1 3 5
23 22 22 22 20 20 20 18 17 15 15 13 13 14 12 9 6 1 10 29 28 24 15 18 11 10 5 6 4 4 4 4 3 5 4 4 4 2 4 4 3 3 1 1 6
24 23 20 19 19 19 18 16 15 13 13 13 14 11 9 7 8 4 8 6 33 28 22 13 12 9 12 6 5 3 3 4 2 4 3 3 3 4 5 5 5 4 4 5 2
27 23 21 20 18 17 16 16 14 13 13 12 12 10 7 10 7 18 11 3 33 28 23 12 11 5 8 6 5 7 5 3 2 2 1 4 4 5 4 4 6 4 9 7 7
26 25 20 19 18 16 15 14 15 13 11 12 10 7 6 9 3 14 3 1 30 27 15 11 21 7 6 5 4 6 4 3 6 3 3 4 5 6 10 6 8 9 7 9 10
26 23 20 19 16 14 14 11 12 12 10 7 6 5 5 5 11 9 4 2 25 24 21 18 17 5 3 4 4 5 3 4 2 7 6 5 6 4 3 5 9 10 9 8 14
28 25 20 16 14 12 12 12 14 15 8 3 1 4 4 1 10 10 6 3 22 19 19 19 9 3 3 6 4 2 3 5 3 7 3 9 2 3 2 3 7 8 10 9 11
30 27 21 16 13 11 11 16 14 5 4 4 1 2 3 4 6 5 5 10 9 13 11 8 3 3 3 4 8 9 4 3 6 2 2 2 6 9 9 3 8 9 11 12 10
32 28 24 18 11 9 12 3 3 2 3 3 4 3 5 5 7 2 2 9 13 13 7 10 4 14 11 5 4 7 5 4 3 1 1 4 4 11 10 7 10 12 13 13 12
32 28 25 18 8 5 7 3 3 1 3 1 3 7 9 9 4 0 4 6 9 13 6 6 11 8 10 7 6 6 5 4 1 3 1 4 10 16 12 7 5 8 9 9 7
33 29 22 10 6 2 2 2 2 6 4 4 3 3 5 5 4 4 7 6 7 10 8 3 7 16 12 6 8 3 5 3 2 1 2 6 5 4 2 2 6 9 7 3 4
31 26 20 10 6 3 2 4 6 3 4 5 2 1 2 7 1 3 2 5 3 17 15 3 3 13 13 12 6 4 3 5 4 3 1 4 4 4 3 6 6 8 10 8 7
28 23 16 18 4 4 4 7 7 3 5 2 2 4 4 2 6 4 6 5 4 7 4 3 9 8 12 6 4 2 3 5 3 4 1 2 2 4 1 3 5 5 6 7 6
21 25 10 10 13 7 6 4 2 5 6 2 2 1 4 4 3 4 5 4 4 9 14 4 3 4 3 8 6 5 4 6 4 2 0 1 2 3 1 0 1 2 5 6 6
13 14 12 8 2 5 5 4 4 6 2 3 3 3 6 4 6 4 1 3 4 4 3 5 5 2 4 8 7 2 3 2 2 2 3 3 1 6 3 3 4 2 6 6 5
11 6 7 7 6 5 5 3 10 3 3 2 2 9 5 4 6 4 2 3 5 5 3 3 4 2 1 3 6 2 1 3 3 3 1 2 5 3 3 5 3 4 6 5 4
8 3 4 2 6 7 1 6 1 3 2 5 7 6 4 6 5 1 2 1 2 1 4 4 3 2 5 2 2 4 1 2 6 2 1 2 5 6 2 4 3 6 7 9 9
6 2 3 7 9 2 1 6 2 3 1 4 4 0 3 2 4 1 2 2 3 1 2 2 6 3 2 2 7 2 5 3 2 3 3 3 4 3 4 5 3 9 8 7 6
4 3 2 13 1 4 3 4 3 3 2 2 4 4 4 5 4 2 1 1 1 2 4 3 4 1 3 0 5 2 1 4 3 1 3 1 4 5 7 5 4 8 8 6 8
3 3 10 11 4 2 2 4 3 3 2 2 4 4 4 4 3 2 3 3 3 4 4 1 4 3 1 1 1 2 4 4 3 4 1 1 5 1 5 5 4 8 7 6 6
2 2 5 6 3 3 4 2 2 6 4 3 2 1 1 4 4 3 2 3 3 3 6 5 2 3 1 1 2 3 4 3 4 3 5 4 4 1 1 4 7 7 5 5 7
2 2 4 4 1 2 3 4 3 3 2 3 2 3 3 3 5 3 2 3 2 2 6 6 3 4 5 3 3 3 4 5 5 3 3 5 5 8 8 6 10 7 4 6 6
3 2 1 2 3 4 1 1 2 4 4 4 3 2 3 3 2 3 2 3 4 6 3 3 3 2 2 1 3 3 5 9 7 4 6 3 5 10 9 10 9 4 4 4 5
2 2 2 1 2 2 3 2 1 0 1 2 5 1 3 4 5 7 6 3 4 1 3 2 3 2 2 1 5 4 7 9 11 5 9 9 17 15 14 4 5 3 4 4 7
6 3 1 2 3 1 2 3 2 2 1 3 3 4 4 2 2 1 1 3 6 7 3 4 5 3 3 2 3 6 9 13 6 5 9 8 10 5 8 5 5 2 3 5 4
Wind_Direction
321 320 319 317 314 310 306 300 293 284 280 282 295 289 297 301 306 234 224 216 221 220 165 180 182 190 154 132 122 141 139 192 201 167 208 159 173 181 37 83 295 207 326 310 267
324 322 320 317 314 312 309 303 298 294 279 276 287 292 290 310 309 269 216 218 221 224 221 192 176 146 152 156 169 169 191 205 198 175 190 169 171 171 137 34 249 137 354 26 155
322 322 320 319 320 313 310 306 300 290 285 277 281 293 286 311 286 218 225 222 215 213 218 217 168 141 155 142 181 159 209 170 208 191 143 153 162 178 140 261 215 162 322 73 158
318 317 319 320 317 316 311 306 299 293 288 278 279 288 288 287 245 52 238 221 207 199 201 172 171 162 152 177 178 153 207 186 179 187 127 164 138 164 199 211 145 146 356 84 161
318 317 316 314 314 316 314 304 300 294 286 284 281 278 281 218 237 226 337 224 196 194 197 175 176 170 185 165 128 157 168 193 211 121 160 137 182 229 246 254 258 264 276 276 230
323 323 315 314 312 311 311 310 307 300 292 278 270 278 247 228 229 222 305 153 186 186 195 173 175 150 157 179 176 182 169 165 237 243 221 173 229 144 255 270 256 233 260 262 264
325 326 317 313 313 312 316 317 307 300 290 281 274 259 240 249 267 239 296 328 185 187 177 170 156 157 128 127 178 126 134 271 241 203 249 160 260 224 241 240 255 265 255 269 249
324 326 320 317 314 314 311 315 309 301 292 268 278 228 256 247 231 288 226 315 180 189 177 170 154 113 125 120 73 119 99 161 244 181 219 120 250 226 250 219 261 268 276 268 274
328 322 316 319 315 313 315 305 313 301 281 257 222 196 235 256 200 183 226 221 174 178 175 169 147 125 102 121 100 169 174 194 303 193 138 202 242 219 81 170 271 279 281 262 264
329 321 307 297 301 309 316 307 307 329 174 147 164 199 238 218 169 127 192 191 162 148 155 163 136 128 127 162 188 169 141 181 202 166 154 208 261 267 298 225 249 269 272 270 250
338 333 325 289 269 299 322 6 21 35 51 165 229 262 104 111 109 175 153 174 159 155 169 174 163 196 177 142 162 136 132 158 194 87 198 232 247 276 265 264 256 251 254 260 268
345 343 334 324 218 287 318 102 190 203 80 34 276 296 289 304 144 180 157 165 171 152 113 154 208 168 152 146 132 129 135 186 45 43 34 341 286 260 253 254 261 282 278 271 296
352 353 355 5 148 292 152 284 206 185 74 33 74 283 287 301 60 198 140 195 108 114 88 160 154 150 164 156 142 126 148 160 131 15 81 318 291 294 33 67 39 22 354 26 18
1 3 18 62 81 90 25 313 152 133 80 9 63 349 246 110 60 329 300 66 99 151 127 145 46 155 158 184 177 149 137 114 111 85 271 2 298 303 354 84 42 36 36 36 34
6 5 22 40 55 37 356 114 121 2 80 315 279 304 184 59 147 1 28 34 81 83 148 26 147 127 145 166 104 110 104 105 92 88 29 16 152 268 276 91 37 14 11 4 357
6 7 23 43 43 44 118 101 70 47 56 235 33 18 97 108 44 61 31 37 41 53 50 60 60 50 72 68 93 128 70 56 58 92 350 235 210 290 144 109 348 302 329 328 339
358 10 42 65 97 82 355 352 36 65 274 21 42 106 96 136 95 68 337 88 114 118 75 29 11 81 145 83 73 182 178 64 22 41 223 35 210 254 274 232 189 234 317 323 320
340 352 15 81 99 344 334 30 53 345 58 256 84 99 84 29 47 62 18 77 41 93 118 121 120 336 60 121 162 124 230 166 178 177 243 70 233 228 236 246 170 266 272 271 302
331 305 286 290 320 314 319 44 179 216 185 132 79 62 47 40 94 90 70 38 89 93 117 131 78 31 38 95 113 183 148 127 102 34 13 217 275 293 149 148 260 328 354 353 347
326 9 278 324 315 133 163 96 88 242 83 68 92 278 120 106 98 100 162 258 125 195 211 166 102 34 158 92 42 91 136 84 20 149 232 265 274 222 216 196 293 359 346 329 324
332 38 327 345 16 53 43 26 3 306 332 98 153 106 136 141 136 162 82 298 162 95 79 111 87 43 117 156 163 112 116 55 98 89 171 274 258 207 188 184 346 338 320 323 352
359 34 349 358 47 63 12 339 315 307 331 83 103 102 133 164 105 115 159 221 164 147 85 58 111 120 132 161 258 169 177 153 132 217 63 56 276 280 197 226 317 310 306 331 341
17 282 357 6 86 345 319 311 277 12 19 33 93 89 138 131 113 131 127 341 167 106 157 179 66 92 87 8 347 197 188 130 99 75 199 157 257 119 229 286 300 285 305 326 353
48 29 332 43 37 90 26 345 359 353 43 50 99 92 99 67 25 134 105 354 216 72 97 99 104 148 180 185 129 173 183 188 138 145 174 233 287 287 297 292 309 321 321 345 359
34 65 151 347 354 345 275 200 356 358 360 23 42 88 133 104 82 117 114 116 28 139 62 93 113 103 263 174 161 202 184 189 201 179 185 244 229 273 283 293 295 306 320 325 339
37 18 342 267 296 310 327 343 36 304 22 351 129 205 116 146 179 190 147 157 179 47 101 25 121 109 343 76 209 242 229 205 220 223 261 268 288 279 274 280 299 310 324 337 4
352 341 309 314 334 117 288 301 334 261 153 100 178 102 51 328 184 193 177 133 159 140 128 123 132 106 260 320 292 272 222 202 184 200 207 214 233 278 295 326 294 276 14 3 3